Starlink 2460

operational
NORAD ID: 48120 Int'l Des: 2021-027 Owner: SPXS Country: US Constellation: starlink
LEOCIRCULARSTARLINK_TYPE

Starlink 2460について

説明を読み込み中...

リアルタイム位置

3D地球を読み込み中...

次回通過

高度履歴

Altitude vs Time

uPlot chart will show altitude changes over time

軌道要素

1 48120U 21027AE 25312.52185721 .00015449 00000-0 10539-2 0 9994
2 48120 53.0546 355.5624 0001666 92.3448 267.7732 15.06393084254160
Epoch: Nov 8, 2025 • Age: 23 hours

現在のステータス

高度 549.7 km
速度 7.59 km/s
衛星直下点 39.02°N, 174.1°E
打ち上げ日 Apr 7, 2021
運用期間 4.5 years
タイプ internet

技術仕様

分類 Payload
質量 260.00 kg
乾燥質量 248.00 kg
総質量 260.00 kg
長さ 0.20 m
直径 2.80 m
スパン 9.00 m
形状 Box + pan
製造者 SPXS
バスタイプ Starlink
フェーズステータス In Orbit
所有者/国 SPXS/US

大規模コンステレーション

Loading constellations...